Flag for U.S.A. Weather past 2 weeks in Paterson, New Jersey, U.S.A.

Now
66 °F

Mostly cloudy.


Feels Like: 66 °F
Forecast: 62 / 84 °F
Wind: No wind

Location: Essex County Airport

Current Time: Aug 20, 2014 at 5:56:31 AM

Latest Report: Aug 20, 2014 at 4:53 AM


Visibility: 10 mi

Pressure: 29.97 "Hg

Humidity: 87%

Dew point: 62 °F

Location of PatersonLocation

Historic Weather in Paterson — Graph

°F

Paterson temperature yesterday

Maximum temperature yesterday: 83 °F (at 2:53 PM)
Minimum temperature yesterday: 57 °F (at 5:53 AM)
Average temperature yesterday: 70 °F

Past Weeks' High & Low Weather Summary

 TemperatureHumidityPressure
High88 °F (Aug 5, 3:53 PM)93% (Aug 13, 7:53 AM)30.17 "Hg (Aug 13, 7:53 AM)
Low55 °F (Aug 15, 5:53 AM)29% (Aug 9, 3:53 PM)29.67 "Hg (Aug 13, 4:53 PM)
Average71 °F61%29.97 "Hg
* Reported Aug 5 4:53 AM — Aug 20 4:53 AM, Paterson, Weather by CustomWeather, © 2014

Note: Actual official high and low records may vary slightly from our data, if they occured in-between our weather recording intervals... More about our weather records

Advertising

Paterson weather history for previous 24 hours

 ConditionsComfort  
Time TempWeatherWind HumidityBarometerVisibility
4:53 AM
Aug 20
66 °FMostly cloudy.No wind87%29.97 "Hg10 mi
3:53 AM65 °FPassing clouds.No wind91%29.96 "Hg10 mi
2:53 AM65 °FOvercast.No wind87%29.97 "Hg10 mi
1:53 AM65 °FClear.No wind87%29.96 "Hg10 mi
12:53 AM67 °FPassing clouds.No wind81%29.96 "Hg10 mi
11:53 PM
Aug 19
68 °FClear.No wind82%29.96 "Hg10 mi
10:53 PM69 °FClear.No wind79%29.95 "Hg10 mi
9:53 PM70 °FClear.No wind76%29.94 "Hg10 mi
8:53 PM71 °FClear.No wind68%29.93 "Hg10 mi
7:53 PM75 °FSunny.5 mph60%29.91 "Hg10 mi
6:53 PM77 °FSunny.9 mph54%29.90 "Hg10 mi
5:53 PM79 °FSunny.9 mph52%29.89 "Hg10 mi
4:53 PM79 °FSunny.9 mph52%29.89 "Hg10 mi
3:53 PM82 °FScattered clouds.5 mph38%29.90 "Hg10 mi
2:53 PM83 °FSunny.No wind34%29.90 "Hg10 mi
1:53 PM79 °FScattered clouds.3 mph44%29.92 "Hg10 mi
12:53 PM80 °FSunny.7 mph44%29.93 "Hg10 mi
11:53 AM76 °FSunny.No wind52%29.94 "Hg10 mi
10:53 AM74 °FSunny.5 mph56%29.95 "Hg10 mi
9:53 AM71 °FSunny.6 mph59%29.94 "Hg10 mi
8:53 AM68 °FSunny.7 mph61%29.93 "Hg10 mi
7:53 AM63 °FSunny.3 mph70%29.92 "Hg10 mi
6:53 AM58 °FClear.3 mph81%29.92 "Hg10 mi
5:53 AM57 °FClear.No wind83%29.91 "Hg10 mi
Weather by CustomWeather, © 2014

See weather overviewHow to use our weather pages